Regional Weather Roundup
Issued by NWS Cleveland, OH

Home | Current Version | Previous Version | Graphics & Text | Print | Product List | Glossary On
Versions: 1 2 3 4 5 6 7 8 9 10 11 12 13 14 15 16 17 18 19 20 21 22 23 24 25 26 27 28 29 30 31 32 33 34 35 36 37 38 39 40 41 42 43 44 45 46 47 48 49 50
000
ASUS41 KCLE 270702
RWRCLE
OHIO REGIONAL WEATHER ROUNDUP
NATIONAL WEATHER SERVICE CLEVELAND, OH
200 AM EST FRI FEB 27 2015

NOTE: "FAIR" INDICATES FEW OR NO CLOUDS BELOW 12,000 FEET WITH NO
SIGNIFICANT WEATHER AND/OR OBSTRUCTIONS TO VISIBILITY.

OHZ001>008-015>018-024>027-034-035-043-044-270800-
   NORTHWEST OHIO

CITY           SKY/WX    TMP DP  RH WIND       PRES   REMARKS
DEFIANCE       CLEAR      1  -7  68 CALM      30.38R
FINDLAY        CLOUDY     6  -1  73 CALM      30.34R
TOLEDO EXPRESS CLEAR     -2  -6  83 CALM      30.37R
TOLEDO EXEC    CLEAR      5  -2  72 CALM      30.38R
LIMA           CLOUDY     8   4  83 CALM      30.34R FOG
$$

OHZ009>014-019>023-028>033-038-089-270800-
   NORTHEAST OHIO

CITY           SKY/WX    TMP DP  RH WIND       PRES   REMARKS
CLE-HOPKINS    CLEAR      4  -3  73 N6        30.37R WCI  -7
CLE-LAKEFRONT  CLEAR      4  -3  73 NW6       30.36R WCI  -7
CUY CO. ARPT   NOT AVBL
LORAIN-ELYRIA  CLEAR      2  -4  76 N3        30.35R
ASHTABULA      PTCLDY     2  -2  83 CALM      30.31R
AKRON-CANTON   PTCLDY     2  -2  83 NW6       30.28R WCI  -9
WOOSTER        CLEAR     -3  -7  82 NW3       30.31R
MANSFIELD      CLOUDY     4   2  91 CALM      30.29S
YOUNGSTOWN     FLURRIES   2  -1  88 NW5       30.27R WCI  -8
$$

OHZ042-051>053-060>062-070>072-077>081-270800-
  SOUTHWEST OHIO

CITY           SKY/WX    TMP DP  RH WIND       PRES   REMARKS
CINC-COVINGTON FLURRIES  13   6  74 NW5       30.36R WCI   5
CINC-LUNKEN    CLOUDY     8   3  80 CALM      30.42R
HAMILTON       FLURRIES   8   5  87 CALM      30.40R
DAYTON         CLOUDY     8   4  83 CALM      30.35R
WRIGHT-PAT AFB FLURRIES   8   3  80 E2        30.36S
DAYTON GENERAL CLOUDY     9   4  80 CALM      30.34R
WILMINGTON     CLEAR      6   1  80 NW7       30.33R WCI  -6
$$

OHZ036-037-039>041-045>050-054>059-063>069-073>076-082>088-270800-
  CENTRAL AND SOUTHEAST OHIO

CITY           SKY/WX    TMP DP  RH WIND       PRES   REMARKS
COLUMBUS       PTCLDY     7   2  80 N3        30.35R
OSU AIRPORT    MOCLDY     4   0  83 NW6       30.34R WCI  -7
BOLTON FIELD   PTCLDY   N/A N/A N/A NW5       30.35R
RICKENBACK AFB PTCLDY     6   3  84 NW6       30.35R WCI  -4
NEWARK         CLEAR      3  -1  83 NW3       30.33R
MARION         CLOUDY     8   3  80 CALM      30.33R
LANCASTER      CLEAR      2  -2  83 N3        30.34R
ZANESVILLE     CLEAR      7   1  76 NW5       30.32R WCI  -2
NEW PHILLY     CLEAR      8   2  76 N3        30.33R
$$



USA.gov is the U.S. government's official web portal to all federal, state and local government web resources and services.